Location: Krasnoyarskiy Pitomnik
(51.1333°N, 71.6167°E)
Time: 23:49:32
(UTC+00:00)

NOSS 2-2 (C) - Pass Details

Date: 01 June 2022
Orbit: 439 x 1763 km, 63.3° (Epoch: 02 June)

Event Time Altitude Azimuth Distance (km) Brightness Sun altitude
Rises 17:55:14 0° 314° (NW) 2,893 8.2 -14.8°
Reaches altitude 10° 17:57:12 10° 314° (NW) 2,115 7.3 -14.9°
Maximum altitude 18:02:00 82° 228° (SW) 854 4.2 -15.2°
Enters shadow 18:06:46 20° 142° (SE) 2,188 5.8 -15.4°
